Simultaneous Nadir Overpasses (SNOs) Predictions

Prediction of SNOs between METOP-B and TERRA Satellite Orbit:

Table of predicted SNOs for the next 14.0 days since TLE Epoch: 9/10/2016
Index Date (METOP-B) Time (METOP-B) Lat,Lon (METOP-B) SZA (METOP-B ) Date (TERRA) Time (TERRA) Lat,Lon (TERRA) SZA (TERRA ) Distance(km) Time Diff (sec)
1 09/12/2016 20:47:17 81.27, -85.29 80.35 09/12/2016 20:47:46 81.27, -85.33 80.36 1.05 29
2 09/12/2016 21:37:57 -81.28, 82.50 99.58 09/12/2016 21:37:12 -81.28, 82.55 99.60 0.84 45
3 09/15/2016 16:21:40 81.28, -18.77 81.47 09/15/2016 16:21:57 81.27, -18.79 81.48 0.59 17
4 09/15/2016 17:12:20 -81.28, 149.03 98.46 09/15/2016 17:11:23 -81.29, 149.11 98.48 1.37 57
5 09/18/2016 11:56:04 81.28, 47.77 82.60 09/18/2016 11:56:09 81.28, 47.75 82.60 0.40 5
6 09/
